Weather History for Pontiac, MI

Change the Weather History Date:

Sunday, April 7, 2013

  Actual Average Record
Temperature  
Mean Temperature 46 °F -  
Max Temperature 57 °F 51 °F 71 °F (2001)
Min Temperature 36 °F 33 °F 18 °F (2007)
Degree Days  
Heating Degree Days 19    
Moisture  
Dew Point 34 °F    
Average Humidity 60    
Maximum Humidity 79    
Minimum Humidity 35    
Precipitation  
Precipitation 0.00 in - - ()
Sea Level Pressure  
Sea Level Pressure 29.83 in    
Wind  
Wind Speed 14 mph (West)    
Max Wind Speed 25 mph    
Max Gust Speed 37 mph    
Visibility 10 miles    
Events Rain    
Averages and records for this station are not official NWS values.
T = Trace of Precipitation, MM = Missing Value Source: NWS Daily Summary

Daily Weather History Graph

Daily Weather History Graph

Search for Another Location

Airport:

Trip Planner

Search our weather history database for the weather conditions in past years. The results will help you decide how hot, cold, wet, or windy it might be!

Date:

Astronomy

Apr. 07, 2013 Rise Set
Actual Time 7:05 AM EDT 8:06 PM EDT
Civil Twilight 6:36 AM EDT 8:35 PM EDT
Nautical Twilight 6:02 AM EDT 9:10 PM EDT
Astronomical Twilight 5:26 AM EDT 9:46 PM EDT
Moon 5:25 AM EDT (4/7) 5:35 PM EDT (4/7)
Length of Visible Light 13h 59m
Length of Day
13h 01m
Waning Crescent, 8% of the Moon is Illuminated
Apr 7
Waning Crescent
Apr 10
New
Apr 18
First Quarter
Apr 25
Full
May 2
Last Quarter

Hourly Weather History & Observations

Time (EDT) Temp. Windchill Dew Point Humidity Pressure Visibility Wind Dir Wind Speed Gust Speed Precip Events Conditions
12:53 AM 46.0 °F 41.4 °F 24.1 °F 42% 29.76 in 10.0 mi SSE 9.2 mph - N/A   Overcast
1:53 AM 50.0 °F - 23.0 °F 35% 29.72 in 10.0 mi South 11.5 mph - N/A   Overcast
2:53 AM 54.0 °F - 28.9 °F 38% 29.69 in 10.0 mi SSW 15.0 mph 31.1 mph 0.00 in Rain Light Rain
3:53 AM 55.9 °F - 34.0 °F 44% 29.64 in 10.0 mi South 15.0 mph 20.7 mph 0.00 in   Overcast
4:53 AM 55.9 °F - 35.1 °F 45% 29.62 in 10.0 mi SSW 11.5 mph 26.5 mph N/A   Mostly Cloudy
5:53 AM 54.0 °F - 37.0 °F 53% 29.61 in 10.0 mi SSW 6.9 mph - N/A   Scattered Clouds
6:53 AM 55.9 °F - 41.0 °F 57% 29.61 in 10.0 mi SW 15.0 mph 21.9 mph N/A   Mostly Cloudy
7:53 AM 55.0 °F - 43.0 °F 64% 29.64 in 10.0 mi WSW 24.2 mph 34.5 mph N/A   Overcast
8:53 AM 55.0 °F - 43.0 °F 64% 29.67 in 10.0 mi West 24.2 mph 31.1 mph N/A   Mostly Cloudy
9:33 AM 51.8 °F - 42.8 °F 71% 29.71 in 8.0 mi West 25.3 mph 35.7 mph N/A   Overcast
9:53 AM 48.9 °F - 41.0 °F 74% 29.74 in 8.0 mi West 25.3 mph 34.5 mph N/A   Overcast
10:53 AM 46.9 °F - 37.0 °F 68% 29.78 in 8.0 mi West 25.3 mph 36.8 mph N/A   Overcast
11:53 AM 46.9 °F - 36.0 °F 66% 29.82 in 8.0 mi West 21.9 mph 31.1 mph N/A   Overcast
12:53 PM 46.0 °F 38.8 °F 34.0 °F 63% 29.85 in 10.0 mi WNW 18.4 mph 29.9 mph N/A   Overcast
1:53 PM 46.9 °F - 34.0 °F 61% 29.87 in 10.0 mi West 18.4 mph - N/A   Overcast
2:53 PM 46.0 °F 38.3 °F 33.1 °F 61% 29.91 in 10.0 mi West 20.7 mph - N/A   Overcast
3:53 PM 46.0 °F 38.5 °F 33.1 °F 61% 29.93 in 10.0 mi West 19.6 mph 25.3 mph N/A   Overcast
4:53 PM 46.0 °F 40.6 °F 32.0 °F 58% 29.95 in 10.0 mi NW 11.5 mph - N/A   Mostly Cloudy
5:16 PM 46.4 °F 41.9 °F 32.0 °F 57% 29.95 in 10.0 mi WNW 9.2 mph - N/A   Mostly Cloudy
5:53 PM 46.9 °F - 32.0 °F 56% 29.97 in 10.0 mi NW 12.7 mph - N/A   Mostly Cloudy
6:53 PM 46.0 °F 43.1 °F 32.0 °F 58% 29.98 in 10.0 mi WNW 5.8 mph - N/A   Scattered Clouds
7:53 PM 43.0 °F 39.5 °F 30.9 °F 62% 29.99 in 10.0 mi NNW 5.8 mph - N/A   Mostly Cloudy
8:53 PM 41.0 °F 39.0 °F 30.9 °F 67% 30.01 in 10.0 mi North 3.5 mph - N/A   Scattered Clouds
9:53 PM 39.0 °F - 30.9 °F 73% 30.02 in 10.0 mi Calm Calm - N/A   Partly Cloudy
10:53 PM 37.9 °F - 30.9 °F 76% 30.03 in 10.0 mi Calm Calm - N/A   Mostly Cloudy
11:53 PM 36.0 °F - 30.0 °F 79% 30.04 in 10.0 mi Calm Calm - N/A   Overcast